| time (UTC) | temp C | wind direction | speed KPH | gust KPH | rain 1hr cm | rain 24hr cm | rain mn cm | humidity % | barometer mb |
| 20260504044510 | 12 | 79 | 0.0 | 11.3 | 0.00 | 0.00 | 0.00 | 69 | 1012.6 |
| 20260504043005 | 12 | 76 | 0.0 | 8.0 | 0.00 | 0.00 | 0.00 | 70 | 1012.5 |
| 20260504041501 | 11 | 49 | 0.0 | 8.0 | 0.00 | 0.00 | 0.00 | 71 | 1012.7 |
| 20260504040100 | 11 | 121 | 0.0 | 3.2 | 0.00 | 0.00 | 0.00 | 71 | 1012.8 |
| 20260504034600 | 11 | 80 | 0.0 | 0.0 | 0.00 | 0.00 | 0.00 | 71 | 1012.9 |
| 20260504033114 | 11 | 77 | 0.0 | 0.0 | 0.00 | 0.00 | 0.00 | 71 | 1012.9 |
| 20260504031559 | 12 | 77 | 0.0 | 0.0 | 0.00 | 0.00 | 0.00 | 71 | 1013.0 |
| 20260504030114 | 12 | 77 | 0.0 | 0.0 | 0.00 | 0.00 | 0.00 | 71 | 1013.1 |
| 20260504024555 | 12 | 69 | 0.0 | 0.0 | 0.00 | 0.23 | 0.00 | 71 | 1013.1 |
| 20260504023053 | 12 | 83 | 0.0 | 0.0 | 0.00 | 0.23 | 0.00 | 70 | 1013.0 |
| 20260504021553 | 12 | 72 | 0.0 | 0.0 | 0.00 | 0.23 | 0.00 | 70 | 1013.1 |
| 20260504020058 | 12 | 84 | 0.0 | 0.0 | 0.00 | 0.23 | 0.00 | 71 | 1013.0 |
| 20260504014551 | 12 | 84 | 0.0 | 0.0 | 0.00 | 0.23 | 0.00 | 71 | 1013.0 |
| 20260504013054 | 12 | 91 | 0.0 | 0.0 | 0.00 | 0.23 | 0.00 | 70 | 1013.0 |
| 20260504011548 | 12 | 352 | 0.0 | 0.0 | 0.00 | 0.23 | 0.00 | 69 | 1013.0 |
| 20260504010055 | 12 | 352 | 0.0 | 0.0 | 0.00 | 0.23 | 0.00 | 69 | 1013.0 |
| 20260504004546 | 12 | 352 | 0.0 | 0.0 | 0.00 | 0.23 | 0.00 | 68 | 1013.1 |
| 20260504003042 | 13 | 95 | 0.0 | 0.0 | 0.00 | 0.23 | 0.00 | 68 | 1013.1 |
| 20260504001541 | 13 | 150 | 0.0 | 0.0 | 0.00 | 0.23 | 0.00 | 67 | 1013.2 |
| 20260504000036 | 13 | 150 | 0.0 | 0.0 | 0.00 | 0.23 | 0.00 | 64 | 1013.3 |
| 20260503234536 | 14 | 82 | 0.0 | 0.0 | 0.00 | 0.23 | 0.00 | 62 | 1013.1 |
| 20260503233030 | 14 | 83 | 0.0 | 0.0 | 0.00 | 0.23 | 0.00 | 61 | 1013.0 |
| 20260503231529 | 14 | 86 | 0.0 | 0.0 | 0.00 | 0.23 | 0.00 | 61 | 1012.8 |
| 20260503230026 | 15 | 70 | 0.0 | 0.0 | 0.00 | 0.23 | 0.00 | 61 | 1012.8 |
| 20260503224524 | 15 | 70 | 0.0 | 0.0 | 0.00 | 0.23 | 0.00 | 60 | 1012.9 |
| 20260503223021 | 15 | 70 | 0.0 | 0.0 | 0.00 | 0.23 | 0.00 | 59 | 1012.8 |
| 20260503221518 | 16 | 71 | 0.0 | 0.0 | 0.00 | 0.23 | 0.00 | 58 | 1012.8 |
| 20260503220027 | 16 | 70 | 0.0 | 0.0 | 0.00 | 0.23 | 0.00 | 55 | 1012.7 |
| 20260503214528 | 16 | 69 | 0.0 | 0.0 | 0.00 | 0.23 | 0.23 | 54 | 1012.7 |
| 20260503213028 | 16 | 69 | 0.0 | 0.0 | 0.00 | 0.23 | 0.23 | 52 | 1012.7 |
| 20260503211516 | 16 | 59 | 0.0 | 0.0 | 0.00 | 0.23 | 0.23 | 53 | 1012.6 |
| 20260503210017 | 16 | 71 | 0.0 | 0.0 | 0.00 | 0.23 | 0.23 | 53 | 1012.6 |
| 20260503204523 | 16 | 82 | 0.0 | 0.0 | 0.00 | 0.23 | 0.23 | 53 | 1012.5 |
| 20260503203014 | 17 | 160 | 0.0 | 0.0 | 0.00 | 0.23 | 0.23 | 52 | 1012.6 |
| 20260503201512 | 17 | 160 | 0.0 | 0.0 | 0.00 | 0.23 | 0.23 | 52 | 1012.8 |
| 20260503200012 | 17 | 160 | 0.0 | 0.0 | 0.00 | 0.23 | 0.23 | 50 | 1012.8 |
| 20260503194512 | 17 | 161 | 0.0 | 0.0 | 0.00 | 0.23 | 0.23 | 50 | 1012.8 |
| 20260503193010 | 17 | 157 | 0.0 | 0.0 | 0.00 | 0.23 | 0.23 | 49 | 1012.6 |
| 20260503191511 | 17 | 158 | 0.0 | 0.0 | 0.00 | 0.23 | 0.23 | 48 | 1012.6 |
| 20260503190016 | 17 | 160 | 0.0 | 0.0 | 0.00 | 0.23 | 0.23 | 48 | 1012.4 |
| 20260503184512 | 17 | 163 | 0.0 | 0.0 | 0.00 | 0.23 | 0.23 | 47 | 1012.6 |
| 20260503183009 | 17 | 157 | 0.0 | 0.0 | 0.00 | 0.23 | 0.23 | 46 | 1012.6 |
| 20260503181522 | 18 | 199 | 0.0 | 0.0 | 0.00 | 0.23 | 0.23 | 45 | 1012.7 |
| 20260503180015 | 18 | 166 | 0.0 | 6.4 | 0.00 | 0.23 | 0.23 | 44 | 1012.8 |
| 20260503174507 | 18 | 157 | 1.6 | 12.9 | 0.00 | 0.23 | 0.23 | 43 | 1012.9 |
| 20260503173007 | 18 | 190 | 1.6 | 14.5 | 0.00 | 0.23 | 0.23 | 43 | 1013.1 |
| 20260503171506 | 18 | 137 | 1.6 | 16.1 | 0.00 | 0.23 | 0.23 | 43 | 1013.0 |
| 20260503081511 | 21 | 204 | 0.0 | 14.5 | 0.00 | 0.23 | 0.23 | 46 | 1013.4 |
| 20260503071555 | 17 | 65 | 0.0 | 0.0 | 0.00 | 0.23 | 0.23 | 71 | 1013.6 |
| 20260503054544 | 13 | 235 | 0.0 | 0.0 | 0.00 | 0.23 | 0.23 | 90 | 1013.6 |
| 20260503053041 | 12 | 198 | 0.0 | 0.0 | 0.00 | 0.23 | 0.23 | 89 | 1013.7 |
| 20260503051537 | 12 | 198 | 0.0 | 0.0 | 0.00 | 0.23 | 0.23 | 89 | 1013.5 |
| 20260503050035 | 12 | 198 | 0.0 | 0.0 | 0.00 | 0.23 | 0.23 | 89 | 1013.4 |